Welcome to the New NWS' Forecast!
Most changes are behind the scenes, but click here for differences you might notice.

Regional Weather Roundup (RWR)

Issued by Gray - Portland, ME (GYX)

                            
318 
ASUS41 KGYX 201510
RWRGYX
WEATHER ROUNDUP FOR MAINE AND NEW HAMPSHIRE
NATIONAL WEATHER SERVICE GRAY ME
1100 AM EDT FRI JUL 20 2018

MEZ002-005-006-010-012-015-018-020-021-024-026-027-029-201600-
MAINE
  
CITY           SKY/WX    TMP DP  RH WIND       PRES   REMARKS
PORTLAND       FAIR      76  56  49 E7        30.20R                  
SANFORD        FAIR      79  60  52 CALM      30.19S                  
BAR HARBOR     FAIR      77  54  44 S8        30.20R                  
WISCASSET      FAIR      77  58  51 SE5       30.20S                  
ROCKLAND       FAIR      72  61  68 E6        30.20R                  
FRYEBURG       FAIR      80  55  42 VRB3      30.20S                  
LEWISTONAUBURN FAIR      77  55  46 CALM      30.19F                  
AUGUSTA        FAIR      77  57  50 CALM      30.20S                  
WATERVILLE     FAIR      77  56  48 CALM      30.17S                  
BANGOR         FAIR      77  57  50 CALM      30.19S                  
GREENVILLE       N/A     74  57  55 CALM      30.20S                  
MILLINOCKET    FAIR      80  55  42 NW6       30.19S                  
HOULTON        FAIR      78  58  49 VRB5      30.16F                  
PRESQUE ISLE   FAIR      78  58  49 VRB6      30.17S                  
FRENCHVILLE    FAIR      79  58  48 CALM      30.16R                  
CARIBOU        FAIR      78  58  49 S5        30.15S                  
$$

NHZ002-005-008-009-011-012-014-201600-
NEW HAMPSHIRE
  
CITY           SKY/WX    TMP DP  RH WIND       PRES   REMARKS
PORTSMOUTH     MOSUNNY   78  58  50 SE5       30.17S                  
ROCHESTER      FAIR      79  60  52 VRB3      30.18S                  
NASHUA         FAIR      79  58  48 VRB3      30.19S                  
MANCHESTER     FAIR      79  55  43 CALM      30.16F                  
CONCORD        FAIR      79  54  41 CALM      30.18F                  
LACONIA        FAIR      76  58  53 NE6       30.20S                  
PLYMOUTH       FAIR      77  54  45 CALM      30.19F                  
BERLIN         FAIR      76  53  44 CALM      30.21F                  
WHITEFIELD     FAIR      79  57  46 N3        30.20F                  
JAFFREY        FAIR      77  52  41 CALM      30.21S                  
KEENE          FAIR      81  59  47 CALM      30.20S                  
LEBANON        FAIR      75  56  51 CALM      30.19S                  
MT WASHINGTON  MOSUNNY   61  43  51 SE1         N/A                   
$$

VTZ005-007-008-201600-
VERMONT
  
CITY           SKY/WX    TMP DP  RH WIND       PRES   REMARKS
ST JOHNSBURY     N/A     75  57  53 MISG      30.18F                  
MONTPELIER     FAIR      76  55  48 E6        30.23F                  
BURLINGTON     FAIR      82  51  34 S9G17     30.15S                  
$$

MAZ007-012-024-CTZ003-RIZ002-NYZ038-NYZ072-201600-
SOUTHERN NEW ENGLAND AND NY
  
CITY           SKY/WX    TMP DP  RH WIND       PRES   REMARKS
BOSTON         FAIR      76  60  57 E8        30.18S                  
WORCESTER      SUNNY     75  54  46 E3        30.21R                  
NANTUCKET      FAIR      70  56  61 SE10      30.21R                  
PROVIDENCE     FAIR      82  53  36 CALM      30.19R                  
HARTFORD       FAIR      78  58  49 CALM      30.18S                  
ALBANY         FAIR      78  57  48 S5        30.17S                  
NEW YORK CITY  FAIR      79  61  53 NE9       30.16S                  
$$

ANZ081-ANZ082-ANZ150-NHZ014-MEZ023>029-201600-
COASTAL MARINE OBSERVATIONS
  
STATION/POSITION TIME  TEMP    WIND        PRES    WAVE
                       AIR SEA DIR/SP/G            HT/PER
                 (UTC) (F)     (DEG/KT/KT) (MB)    (FT/S)
MOUNT DESERT ROC 1500   66     170/  5/  5 1023.2R
MATINICUS ROCK   1400   65     210/  8/  8 1022.3R
ISLE OF SHOALS   1400   65     100/  1/  2 1021.8R
JEFFREYS LEDGE   1436      69                N/A     2/ 8
$$

.............KEY..............
   WCI - WIND CHILL
   TC  - TEMPERATURE IN CELSIUS
   VSB - VISIBILITY IN MILES
   HX  - HEAT INDEX
   FAIR- INDICATES FEW OR NO CLOUDS BELOW 12,000 FT, WITH NO 
         SIGNIFICANT WEATHER AND/OR OBSTRUCTIONS TO VISIBILITY.